| time (UTC) | temp F | wind direction | speed MPH | gust MPH | rain 1hr in | rain 24hr in | rain mn in | humidity % | barometer mb |
| 20260510104910 | 55 | 122 | 1.0 | 1.0 | 0.00 | 0.00 | 0.00 | 98 | 1016.1 |
| 20260510104408 | 55 | 159 | 1.0 | 1.0 | 0.00 | 0.00 | 0.00 | 98 | 1015.8 |
| 20260510103904 | 55 | 100 | 1.0 | 1.0 | 0.00 | 0.00 | 0.00 | 98 | 1016.0 |
| 20260510103401 | 55 | 151 | 2.0 | 2.0 | 0.00 | 0.00 | 0.00 | 98 | 1016.0 |
| 20260510102856 | 55 | 19 | 0.0 | 0.0 | 0.00 | 0.00 | 0.00 | 97 | 1016.0 |
| 20260510102347 | 55 | 356 | 0.0 | 0.0 | 0.00 | 0.00 | 0.00 | 97 | 1015.7 |
| 20260510101844 | 56 | 64 | 0.0 | 0.0 | 0.00 | 0.00 | 0.00 | 97 | 1015.6 |
| 20260510101342 | 56 | 80 | 1.0 | 1.0 | 0.00 | 0.00 | 0.00 | 97 | 1015.6 |
| 20260510100838 | 56 | 55 | 0.0 | 0.0 | 0.00 | 0.00 | 0.00 | 97 | 1015.7 |
| 20260510100336 | 56 | 57 | 0.0 | 1.0 | 0.00 | 0.00 | 0.00 | 97 | 1016.0 |
| 20260510095831 | 56 | 59 | 0.0 | 1.0 | 0.00 | 0.00 | 0.00 | 97 | 1015.8 |
| 20260510095327 | 57 | 55 | 1.0 | 1.0 | 0.00 | 0.00 | 0.00 | 97 | 1016.0 |
| 20260510094821 | 57 | 62 | 1.0 | 1.0 | 0.00 | 0.00 | 0.00 | 97 | 1015.6 |
| 20260510094316 | 57 | 64 | 1.0 | 1.0 | 0.00 | 0.00 | 0.00 | 97 | 1015.5 |
| 20260510093813 | 57 | 71 | 0.0 | 1.0 | 0.00 | 0.00 | 0.00 | 97 | 1015.4 |
| 20260510093309 | 57 | 63 | 1.0 | 1.0 | 0.00 | 0.00 | 0.00 | 97 | 1015.5 |
| 20260510092805 | 57 | 26 | 0.0 | 1.0 | 0.00 | 0.00 | 0.00 | 97 | 1015.4 |
| 20260510092301 | 57 | 336 | 2.0 | 3.0 | 0.00 | 0.00 | 0.00 | 97 | 1015.3 |
| 20260510091757 | 57 | 340 | 2.0 | 2.0 | 0.00 | 0.00 | 0.00 | 97 | 1015.0 |
| 20260510091255 | 57 | 348 | 1.0 | 1.0 | 0.00 | 0.00 | 0.00 | 98 | 1015.1 |
| 20260510090751 | 57 | 340 | 1.0 | 2.0 | 0.00 | 0.00 | 0.00 | 98 | 1015.0 |
| 20260510090248 | 57 | 348 | 1.0 | 1.0 | 0.00 | 0.00 | 0.00 | 98 | 1014.8 |
| 20260510085744 | 57 | 353 | 0.0 | 1.0 | 0.00 | 0.00 | 0.00 | 98 | 1014.3 |
| 20260510085238 | 57 | 147 | 0.0 | 0.0 | 0.00 | 0.00 | 0.00 | 98 | 1013.9 |
| 20260510084734 | 57 | 155 | 0.0 | 0.0 | 0.00 | 0.00 | 0.00 | 98 | 1013.9 |
| 20260510084231 | 57 | 140 | 0.0 | 1.0 | 0.00 | 0.00 | 0.00 | 98 | 1013.9 |
| 20260510083727 | 57 | 153 | 1.0 | 1.0 | 0.00 | 0.00 | 0.00 | 98 | 1014.0 |
| 20260510083225 | 57 | 143 | 1.0 | 2.0 | 0.00 | 0.00 | 0.00 | 98 | 1013.8 |
| 20260510082720 | 57 | 158 | 2.0 | 2.0 | 0.00 | 0.00 | 0.00 | 98 | 1014.0 |
| 20260510082217 | 57 | 155 | 2.0 | 2.0 | 0.00 | 0.00 | 0.00 | 98 | 1014.1 |
| 20260510081716 | 57 | 152 | 1.0 | 1.0 | 0.00 | 0.00 | 0.00 | 99 | 1014.1 |
| 20260510081212 | 57 | 134 | 1.0 | 1.0 | 0.00 | 0.00 | 0.00 | 99 | 1014.2 |
| 20260510080707 | 57 | 135 | 1.0 | 1.0 | 0.00 | 0.00 | 0.00 | 99 | 1013.9 |
| 20260510080204 | 57 | 159 | 1.0 | 2.0 | 0.00 | 0.00 | 0.00 | 99 | 1013.7 |
| 20260510075700 | 57 | 151 | 2.0 | 2.0 | 0.00 | 0.00 | 0.00 | 99 | 1013.9 |
| 20260510075158 | 57 | 133 | 1.0 | 1.0 | 0.00 | 0.00 | 0.00 | 99 | 1013.9 |
| 20260510074655 | 57 | 150 | 1.0 | 1.0 | 0.00 | 0.00 | 0.00 | 99 | 1013.8 |
| 20260510074151 | 57 | 153 | 1.0 | 2.0 | 0.00 | 0.00 | 0.00 | 98 | 1013.6 |
| 20260510073648 | 57 | 160 | 1.0 | 2.0 | 0.00 | 0.00 | 0.00 | 98 | 1013.7 |
| 20260510073144 | 57 | 153 | 2.0 | 2.0 | 0.00 | 0.00 | 0.00 | 98 | 1013.9 |
| 20260510072640 | 57 | 150 | 1.0 | 1.0 | 0.00 | 0.00 | 0.00 | 98 | 1014.1 |
| 20260510072136 | 57 | 121 | 1.0 | 1.0 | 0.00 | 0.00 | 0.00 | 98 | 1014.1 |
| 20260510071632 | 57 | 132 | 1.0 | 1.0 | 0.00 | 0.00 | 0.00 | 98 | 1014.2 |
| 20260510071130 | 57 | 136 | 1.0 | 1.0 | 0.00 | 0.00 | 0.00 | 98 | 1014.1 |
| 20260510070628 | 57 | 156 | 1.0 | 1.0 | 0.00 | 0.00 | 0.00 | 98 | 1014.2 |
| 20260510070125 | 57 | 157 | 2.0 | 2.0 | 0.00 | 0.00 | 0.00 | 98 | 1013.9 |
| 20260510065620 | 57 | 152 | 2.0 | 2.0 | 0.00 | 0.00 | 0.00 | 98 | 1014.3 |
| 20260510065116 | 57 | 150 | 2.0 | 2.0 | 0.00 | 0.00 | 0.00 | 98 | 1014.6 |
| 20260510064613 | 57 | 161 | 0.0 | 1.0 | 0.00 | 0.00 | 0.00 | 98 | 1014.6 |
| 20260510064110 | 57 | 165 | 2.0 | 2.0 | 0.00 | 0.00 | 0.00 | 98 | 1014.7 |
| 20260510063607 | 57 | 160 | 1.0 | 2.0 | 0.00 | 0.00 | 0.00 | 98 | 1014.6 |
| 20260510063103 | 56 | 150 | 1.0 | 2.0 | 0.00 | 0.00 | 0.00 | 98 | 1014.7 |
| 20260510062554 | 56 | 157 | 2.0 | 2.0 | 0.00 | 0.00 | 0.00 | 98 | 1014.8 |
| 20260510062049 | 56 | 154 | 1.0 | 2.0 | 0.00 | 0.00 | 0.00 | 98 | 1014.8 |
| 20260510061546 | 56 | 151 | 2.0 | 2.0 | 0.00 | 0.00 | 0.00 | 98 | 1015.0 |
| 20260510061043 | 56 | 156 | 2.0 | 2.0 | 0.00 | 0.00 | 0.00 | 98 | 1014.8 |
| 20260510060539 | 56 | 132 | 1.0 | 1.0 | 0.00 | 0.00 | 0.00 | 98 | 1015.0 |
| 20260510060035 | 56 | 144 | 1.0 | 1.0 | 0.00 | 0.00 | 0.00 | 98 | 1015.0 |
| 20260510055531 | 56 | 154 | 2.0 | 2.0 | 0.00 | 0.00 | 0.00 | 98 | 1015.0 |
| 20260510055030 | 55 | 132 | 1.0 | 1.0 | 0.00 | 0.00 | 0.00 | 98 | 1015.0 |
| 20260510054525 | 55 | 136 | 1.0 | 1.0 | 0.00 | 0.00 | 0.00 | 98 | 1014.8 |
| 20260510054020 | 55 | 135 | 1.0 | 1.0 | 0.00 | 0.00 | 0.00 | 98 | 1015.1 |
| 20260510053515 | 55 | 121 | 1.0 | 1.0 | 0.00 | 0.00 | 0.00 | 98 | 1014.8 |
| 20260510053013 | 55 | 123 | 1.0 | 1.0 | 0.00 | 0.00 | 0.00 | 98 | 1015.1 |
| 20260510052509 | 55 | 147 | 2.0 | 2.0 | 0.00 | 0.00 | 0.00 | 98 | 1014.9 |
| 20260510052005 | 55 | 160 | 1.0 | 1.0 | 0.00 | 0.00 | 0.00 | 98 | 1014.9 |
| 20260510051500 | 55 | 142 | 1.0 | 1.0 | 0.00 | 0.00 | 0.00 | 98 | 1014.7 |
| 20260510050957 | 54 | 154 | 1.0 | 1.0 | 0.00 | 0.00 | 0.00 | 98 | 1014.9 |
| 20260510050454 | 54 | 156 | 1.0 | 1.0 | 0.00 | 0.00 | 0.00 | 98 | 1014.7 |
| 20260510045951 | 54 | 147 | 1.0 | 1.0 | 0.00 | 0.00 | 0.00 | 98 | 1014.6 |
| 20260510045449 | 54 | 149 | 2.0 | 2.0 | 0.00 | 0.00 | 0.00 | 98 | 1014.6 |
| 20260510044945 | 54 | 141 | 2.0 | 2.0 | 0.00 | 0.00 | 0.00 | 98 | 1014.4 |
| 20260510044442 | 54 | 155 | 1.0 | 1.0 | 0.00 | 0.00 | 0.00 | 97 | 1014.6 |
| 20260510043939 | 54 | 151 | 1.0 | 1.0 | 0.00 | 0.00 | 0.00 | 97 | 1014.3 |
| 20260510043434 | 54 | 147 | 2.0 | 2.0 | 0.00 | 0.00 | 0.00 | 97 | 1014.7 |
| 20260510042932 | 54 | 158 | 1.0 | 2.0 | 0.00 | 0.00 | 0.00 | 97 | 1014.5 |
| 20260510042429 | 54 | 164 | 1.0 | 2.0 | 0.00 | 0.00 | 0.00 | 97 | 1014.4 |
| 20260510041924 | 55 | 158 | 1.0 | 1.0 | 0.00 | 0.00 | 0.00 | 97 | 1014.3 |
| 20260510041422 | 55 | 161 | 2.0 | 2.0 | 0.00 | 0.00 | 0.00 | 97 | 1014.5 |
| 20260510040919 | 55 | 162 | 2.0 | 2.0 | 0.00 | 0.00 | 0.00 | 97 | 1014.5 |
| 20260510040416 | 55 | 161 | 2.0 | 2.0 | 0.00 | 0.00 | 0.00 | 97 | 1014.5 |
| 20260510035911 | 55 | 161 | 1.0 | 2.0 | 0.00 | 0.00 | 0.00 | 97 | 1014.4 |
| 20260510035408 | 55 | 146 | 1.0 | 2.0 | 0.00 | 0.00 | 0.00 | 97 | 1014.5 |
| 20260510034903 | 55 | 120 | 1.0 | 1.0 | 0.00 | 0.00 | 0.00 | 97 | 1014.4 |
| 20260510034402 | 55 | 114 | 1.0 | 1.0 | 0.00 | 0.00 | 0.00 | 97 | 1014.6 |
| 20260510033857 | 55 | 148 | 1.0 | 1.0 | 0.00 | 0.00 | 0.00 | 97 | 1014.2 |
| 20260510033354 | 55 | 161 | 1.0 | 1.0 | 0.00 | 0.00 | 0.00 | 96 | 1014.0 |
| 20260510032850 | 55 | 151 | 2.0 | 2.0 | 0.00 | 0.00 | 0.00 | 96 | 1014.1 |
| 20260510032347 | 56 | 163 | 2.0 | 2.0 | 0.00 | 0.00 | 0.00 | 96 | 1013.6 |
| 20260510031843 | 56 | 147 | 1.0 | 1.0 | 0.00 | 0.00 | 0.00 | 96 | 1013.6 |
| 20260510031338 | 56 | 163 | 2.0 | 2.0 | 0.00 | 0.00 | 0.00 | 96 | 1013.7 |
| 20260510030838 | 56 | 163 | 2.0 | 2.0 | 0.00 | 0.00 | 0.00 | 95 | 1013.4 |
| 20260510030335 | 57 | 158 | 1.0 | 2.0 | 0.00 | 0.00 | 0.00 | 95 | 1013.5 |
| 20260510025832 | 57 | 156 | 1.0 | 1.0 | 0.00 | 0.00 | 0.00 | 95 | 1013.3 |
| 20260510025330 | 57 | 161 | 2.0 | 2.0 | 0.00 | 0.00 | 0.00 | 95 | 1013.2 |
| 20260510024826 | 57 | 152 | 2.0 | 2.0 | 0.00 | 0.00 | 0.00 | 95 | 1013.4 |
| 20260510024323 | 58 | 129 | 1.0 | 1.0 | 0.00 | 0.00 | 0.00 | 94 | 1013.2 |
| 20260510023820 | 58 | 150 | 2.0 | 2.0 | 0.00 | 0.00 | 0.00 | 94 | 1013.2 |
| 20260510023316 | 58 | 163 | 2.0 | 2.0 | 0.00 | 0.00 | 0.00 | 93 | 1013.2 |
| 20260510022813 | 59 | 145 | 1.0 | 1.0 | 0.00 | 0.00 | 0.00 | 93 | 1012.9 |
| 20260510022312 | 59 | 155 | 1.0 | 1.0 | 0.00 | 0.00 | 0.00 | 93 | 1012.9 |
| 20260510021812 | 59 | 161 | 2.0 | 2.0 | 0.00 | 0.00 | 0.00 | 92 | 1012.5 |
| 20260510021310 | 60 | 157 | 1.0 | 1.0 | 0.00 | 0.00 | 0.00 | 92 | 1012.5 |
| 20260510020806 | 60 | 153 | 0.0 | 1.0 | 0.00 | 0.00 | 0.00 | 91 | 1012.4 |
| 20260510020305 | 60 | 157 | 1.0 | 1.0 | 0.00 | 0.00 | 0.00 | 91 | 1012.2 |
| 20260510015802 | 61 | 155 | 2.0 | 2.0 | 0.00 | 0.00 | 0.00 | 90 | 1012.1 |
| 20260510015258 | 61 | 155 | 2.0 | 2.0 | 0.00 | 0.00 | 0.00 | 90 | 1011.9 |
| 20260510014753 | 62 | 151 | 1.0 | 2.0 | 0.00 | 0.00 | 0.00 | 89 | 1011.9 |
| 20260510014251 | 62 | 159 | 2.0 | 2.0 | 0.00 | 0.00 | 0.00 | 88 | 1012.0 |
| 20260510013747 | 62 | 159 | 2.0 | 2.0 | 0.00 | 0.00 | 0.00 | 87 | 1011.8 |
| 20260510013242 | 63 | 147 | 1.0 | 1.0 | 0.00 | 0.00 | 0.00 | 86 | 1011.8 |
| 20260510012737 | 63 | 156 | 2.0 | 2.0 | 0.00 | 0.00 | 0.00 | 85 | 1011.5 |
| 20260510012232 | 64 | 152 | 2.0 | 2.0 | 0.00 | 0.00 | 0.00 | 84 | 1011.6 |
| 20260510011732 | 64 | 161 | 2.0 | 2.0 | 0.00 | 0.00 | 0.00 | 83 | 1011.3 |
| 20260510011228 | 65 | 161 | 2.0 | 2.0 | 0.00 | 0.00 | 0.00 | 82 | 1011.3 |
| 20260510010725 | 65 | 163 | 2.0 | 2.0 | 0.00 | 0.00 | 0.00 | 82 | 1011.2 |
| 20260510010221 | 66 | 164 | 2.0 | 2.0 | 0.00 | 0.00 | 0.00 | 81 | 1010.9 |
| 20260510005718 | 66 | 165 | 2.0 | 2.0 | 0.00 | 0.00 | 0.00 | 80 | 1011.3 |
| 20260510005214 | 67 | 160 | 2.0 | 2.0 | 0.00 | 0.00 | 0.00 | 79 | 1011.0 |
| 20260510004713 | 67 | 166 | 2.0 | 2.0 | 0.00 | 0.00 | 0.00 | 78 | 1011.1 |
| 20260510004211 | 68 | 161 | 2.0 | 2.0 | 0.00 | 0.00 | 0.00 | 77 | 1011.1 |
| 20260510003708 | 68 | 167 | 2.0 | 2.0 | 0.00 | 0.00 | 0.00 | 76 | 1011.1 |
| 20260510003203 | 69 | 167 | 2.0 | 2.0 | 0.00 | 0.00 | 0.00 | 74 | 1011.1 |
| 20260510002657 | 70 | 162 | 2.0 | 2.0 | 0.00 | 0.00 | 0.00 | 73 | 1011.0 |
| 20260510002155 | 71 | 166 | 2.0 | 2.0 | 0.00 | 0.00 | 0.00 | 71 | 1011.0 |
| 20260510001652 | 72 | 168 | 2.0 | 2.0 | 0.00 | 0.00 | 0.00 | 68 | 1010.9 |
| 20260510001150 | 75 | 158 | 2.0 | 2.0 | 0.00 | 0.00 | 0.00 | 66 | 1011.1 |
| 20260510000651 | 76 | 163 | 1.0 | 2.0 | 0.00 | 0.00 | 0.00 | 63 | 1011.0 |
| 20260510000148 | 77 | 198 | 1.0 | 1.0 | 0.00 | 0.00 | 0.00 | 62 | 1011.1 |
| 20260509235645 | 78 | 171 | 1.0 | 1.0 | 0.00 | 0.00 | 0.00 | 60 | 1010.9 |
| 20260509235141 | 80 | 160 | 1.0 | 1.0 | 0.00 | 0.00 | 0.00 | 58 | 1011.4 |
| 20260509234637 | 81 | 285 | 0.0 | 0.0 | 0.00 | 0.00 | 0.00 | 56 | 1011.1 |
| 20260509234135 | 82 | 152 | 2.0 | 2.0 | 0.00 | 0.00 | 0.00 | 54 | 1011.2 |
| 20260509233632 | 84 | 286 | 1.0 | 1.0 | 0.00 | 0.00 | 0.00 | 54 | 1011.2 |
| 20260509233124 | 84 | 248 | 1.0 | 1.0 | 0.00 | 0.00 | 0.00 | 52 | 1011.4 |
| 20260509232620 | 83 | 316 | 0.0 | 0.0 | 0.00 | 0.00 | 0.00 | 50 | 1011.2 |
| 20260509232117 | 83 | 278 | 1.0 | 1.0 | 0.00 | 0.00 | 0.00 | 50 | 1011.2 |
| 20260509231614 | 82 | 305 | 0.0 | 1.0 | 0.00 | 0.00 | 0.00 | 45 | 1011.2 |
| 20260509231112 | 82 | 293 | 1.0 | 1.0 | 0.00 | 0.00 | 0.00 | 45 | 1011.2 |
| 20260509230608 | 82 | 321 | 0.0 | 0.0 | 0.00 | 0.00 | 0.00 | 48 | 1011.1 |
| 20260509230105 | 82 | 316 | 0.0 | 0.0 | 0.00 | 0.00 | 0.00 | 48 | 1011.1 |
| 20260509225601 | 81 | 305 | 1.0 | 1.0 | 0.00 | 0.00 | 0.00 | 50 | 1011.3 |
| 20260509225056 | 81 | 306 | 0.0 | 0.0 | 0.00 | 0.00 | 0.00 | 54 | 1011.2 |
| 20260509224552 | 81 | 125 | 1.0 | 1.0 | 0.00 | 0.00 | 0.00 | 48 | 1011.2 |
| 20260509224049 | 84 | 324 | 0.0 | 0.0 | 0.00 | 0.00 | 0.00 | 42 | 1011.2 |
| 20260509223546 | 85 | 322 | 0.0 | 0.0 | 0.00 | 0.00 | 0.00 | 41 | 1011.2 |
| 20260509223044 | 86 | 255 | 1.0 | 1.0 | 0.00 | 0.00 | 0.00 | 33 | 1011.1 |
| 20260509222539 | 85 | 64 | 0.0 | 1.0 | 0.00 | 0.00 | 0.00 | 37 | 1011.2 |
| 20260509222036 | 84 | 40 | 1.0 | 1.0 | 0.00 | 0.00 | 0.00 | 36 | 1011.6 |
| 20260509221532 | 84 | 286 | 1.0 | 1.0 | 0.00 | 0.00 | 0.00 | 37 | 1011.2 |
| 20260509221028 | 83 | 196 | 0.0 | 1.0 | 0.00 | 0.00 | 0.00 | 36 | 1011.1 |
| 20260509220524 | 84 | 260 | 2.0 | 2.0 | 0.00 | 0.00 | 0.00 | 38 | 1011.1 |
| 20260509220020 | 85 | 282 | 1.0 | 1.0 | 0.00 | 0.00 | 0.00 | 37 | 1011.1 |
| 20260509215515 | 87 | 149 | 5.0 | 6.0 | 0.00 | 0.00 | 0.00 | 34 | 1011.2 |
| 20260509215013 | 86 | 255 | 2.0 | 2.0 | 0.00 | 0.00 | 0.00 | 35 | 1011.1 |
| 20260509214510 | 86 | 160 | 2.0 | 2.0 | 0.00 | 0.00 | 0.00 | 35 | 1011.3 |
| 20260509214007 | 85 | 301 | 1.0 | 1.0 | 0.00 | 0.00 | 0.00 | 38 | 1011.3 |
| 20260509213503 | 85 | 342 | 3.0 | 3.0 | 0.00 | 0.00 | 0.00 | 37 | 1011.3 |
| 20260509213000 | 87 | 298 | 3.0 | 5.0 | 0.00 | 0.00 | 0.00 | 37 | 1011.1 |
| 20260509212457 | 87 | 332 | 0.0 | 0.0 | 0.00 | 0.00 | 0.00 | 34 | 1011.3 |
| 20260509211954 | 86 | 327 | 0.0 | 0.0 | 0.00 | 0.00 | 0.00 | 35 | 1011.4 |
| 20260509211449 | 86 | 294 | 0.0 | 1.0 | 0.00 | 0.00 | 0.00 | 37 | 1011.3 |
| 20260509210946 | 86 | 232 | 3.0 | 3.0 | 0.00 | 0.00 | 0.00 | 36 | 1011.4 |
| 20260509210443 | 85 | 343 | 1.0 | 1.0 | 0.00 | 0.00 | 0.00 | 34 | 1011.4 |
| 20260509205938 | 84 | 331 | 0.0 | 0.0 | 0.00 | 0.00 | 0.00 | 36 | 1011.5 |
| 20260509205433 | 84 | 333 | 3.0 | 3.0 | 0.00 | 0.00 | 0.00 | 38 | 1011.7 |
| 20260509204929 | 85 | 317 | 4.0 | 5.0 | 0.00 | 0.00 | 0.00 | 37 | 1011.8 |
| 20260509204425 | 85 | 246 | 1.0 | 1.0 | 0.00 | 0.00 | 0.00 | 36 | 1011.5 |
| 20260509203917 | 85 | 319 | 2.0 | 2.0 | 0.00 | 0.00 | 0.00 | 35 | 1011.8 |
| 20260509203413 | 84 | 334 | 1.0 | 1.0 | 0.00 | 0.00 | 0.00 | 35 | 1011.7 |
| 20260509202910 | 84 | 329 | 1.0 | 2.0 | 0.00 | 0.00 | 0.00 | 35 | 1011.9 |
| 20260509202406 | 85 | 342 | 2.0 | 2.0 | 0.00 | 0.00 | 0.00 | 34 | 1012.0 |
| 20260509201901 | 83 | 327 | 1.0 | 1.0 | 0.00 | 0.00 | 0.00 | 33 | 1012.0 |
| 20260509201356 | 84 | 337 | 3.0 | 3.0 | 0.00 | 0.00 | 0.00 | 37 | 1011.9 |
| 20260509200853 | 83 | 349 | 0.0 | 1.0 | 0.00 | 0.00 | 0.00 | 33 | 1011.9 |
| 20260509200348 | 83 | 347 | 1.0 | 2.0 | 0.00 | 0.00 | 0.00 | 33 | 1012.0 |
| 20260509195845 | 83 | 337 | 1.0 | 2.0 | 0.00 | 0.00 | 0.00 | 37 | 1011.8 |
| 20260509195340 | 83 | 331 | 4.0 | 7.0 | 0.00 | 0.00 | 0.00 | 36 | 1011.8 |
| 20260509194839 | 84 | 4 | 3.0 | 3.0 | 0.00 | 0.00 | 0.00 | 37 | 1012.1 |
| 20260509194336 | 85 | 289 | 4.0 | 5.0 | 0.00 | 0.00 | 0.00 | 32 | 1011.7 |
| 20260509193833 | 84 | 294 | 1.0 | 1.0 | 0.00 | 0.00 | 0.00 | 34 | 1012.0 |
| 20260509193332 | 84 | 323 | 1.0 | 2.0 | 0.00 | 0.00 | 0.00 | 34 | 1012.0 |
| 20260509192829 | 84 | 10 | 1.0 | 1.0 | 0.00 | 0.00 | 0.00 | 35 | 1012.0 |
| 20260509192325 | 84 | 231 | 3.0 | 3.0 | 0.00 | 0.00 | 0.00 | 33 | 1012.1 |
| 20260509191820 | 84 | 98 | 1.0 | 2.0 | 0.00 | 0.00 | 0.00 | 37 | 1012.1 |
| 20260509191316 | 84 | 303 | 2.0 | 3.0 | 0.00 | 0.00 | 0.00 | 34 | 1012.3 |
| 20260509190812 | 85 | 110 | 5.0 | 7.0 | 0.00 | 0.00 | 0.00 | 35 | 1012.4 |
| 20260509190309 | 83 | 336 | 0.0 | 0.0 | 0.00 | 0.00 | 0.00 | 42 | 1012.3 |
| 20260509185807 | 83 | 12 | 1.0 | 1.0 | 0.00 | 0.00 | 0.00 | 37 | 1012.5 |
| 20260509185306 | 82 | 135 | 1.0 | 1.0 | 0.00 | 0.00 | 0.00 | 37 | 1012.8 |
| 20260509184800 | 82 | 356 | 4.0 | 6.0 | 0.00 | 0.00 | 0.00 | 36 | 1012.4 |
| 20260509184258 | 82 | 329 | 3.0 | 3.0 | 0.00 | 0.00 | 0.00 | 39 | 1012.5 |
| 20260509183754 | 82 | 14 | 3.0 | 5.0 | 0.00 | 0.00 | 0.00 | 39 | 1012.4 |
| 20260509183249 | 82 | 19 | 1.0 | 2.0 | 0.00 | 0.00 | 0.00 | 38 | 1012.5 |
| 20260509182745 | 81 | 351 | 3.0 | 5.0 | 0.00 | 0.00 | 0.00 | 39 | 1012.5 |
| 20260509182243 | 82 | 348 | 4.0 | 5.0 | 0.00 | 0.00 | 0.00 | 40 | 1012.4 |
| 20260509181740 | 82 | 358 | 1.0 | 1.0 | 0.00 | 0.00 | 0.00 | 40 | 1012.5 |
| 20260509181237 | 83 | 299 | 3.0 | 3.0 | 0.00 | 0.00 | 0.00 | 38 | 1012.5 |
| 20260509180734 | 83 | 327 | 0.0 | 0.0 | 0.00 | 0.00 | 0.00 | 38 | 1012.9 |
| 20260509180231 | 82 | 90 | 2.0 | 2.0 | 0.00 | 0.00 | 0.00 | 37 | 1012.8 |
| 20260509175727 | 83 | 336 | 1.0 | 1.0 | 0.00 | 0.00 | 0.00 | 39 | 1012.8 |
| 20260509175223 | 84 | 207 | 3.0 | 3.0 | 0.00 | 0.00 | 0.00 | 38 | 1012.5 |
| 20260509174719 | 83 | 52 | 1.0 | 1.0 | 0.00 | 0.00 | 0.00 | 37 | 1012.6 |
| 20260509174215 | 82 | 352 | 1.0 | 1.0 | 0.00 | 0.00 | 0.00 | 40 | 1012.8 |
| 20260509173711 | 82 | 161 | 4.0 | 5.0 | 0.00 | 0.00 | 0.00 | 37 | 1013.1 |
| 20260509173207 | 83 | 169 | 3.0 | 3.0 | 0.00 | 0.00 | 0.00 | 40 | 1013.0 |
| 20260509172703 | 82 | 353 | 1.0 | 1.0 | 0.00 | 0.00 | 0.00 | 38 | 1013.2 |
| 20260509172200 | 82 | 53 | 1.0 | 1.0 | 0.00 | 0.00 | 0.00 | 43 | 1013.2 |
| 20260509171655 | 81 | 349 | 2.0 | 2.0 | 0.00 | 0.00 | 0.00 | 43 | 1013.0 |
| 20260509171151 | 81 | 341 | 3.0 | 5.0 | 0.00 | 0.00 | 0.00 | 48 | 1013.2 |
| 20260509170649 | 80 | 47 | 1.0 | 1.0 | 0.00 | 0.00 | 0.00 | 45 | 1013.0 |
| 20260509170144 | 80 | 24 | 2.0 | 2.0 | 0.00 | 0.00 | 0.00 | 46 | 1013.0 |
| 20260509165643 | 81 | 279 | 3.0 | 5.0 | 0.00 | 0.00 | 0.00 | 45 | 1013.2 |
| 20260509165139 | 82 | 134 | 2.0 | 2.0 | 0.00 | 0.00 | 0.00 | 47 | 1013.2 |
| 20260509164635 | 82 | 19 | 1.0 | 1.0 | 0.00 | 0.00 | 0.00 | 49 | 1013.4 |
| 20260509164131 | 81 | 1 | 0.0 | 1.0 | 0.00 | 0.00 | 0.00 | 47 | 1013.1 |
| 20260509163628 | 80 | 52 | 0.0 | 0.0 | 0.00 | 0.00 | 0.00 | 50 | 1013.2 |
| 20260509163124 | 80 | 155 | 1.0 | 1.0 | 0.00 | 0.00 | 0.00 | 55 | 1013.1 |
| 20260509162621 | 78 | 103 | 2.0 | 2.0 | 0.00 | 0.00 | 0.00 | 53 | 1013.2 |
| 20260509162117 | 78 | 132 | 4.0 | 5.0 | 0.00 | 0.00 | 0.00 | 53 | 1013.1 |
| 20260509161613 | 79 | 142 | 3.0 | 5.0 | 0.00 | 0.00 | 0.00 | 56 | 1012.8 |
| 20260509161109 | 78 | 358 | 3.0 | 3.0 | 0.00 | 0.00 | 0.00 | 55 | 1013.0 |
| 20260509160605 | 78 | 23 | 1.0 | 2.0 | 0.00 | 0.00 | 0.00 | 55 | 1013.0 |
| 20260509160100 | 78 | 325 | 0.0 | 0.0 | 0.00 | 0.00 | 0.00 | 57 | 1013.2 |
| 20260509155557 | 78 | 215 | 1.0 | 1.0 | 0.00 | 0.00 | 0.00 | 60 | 1013.3 |
| 20260509155053 | 77 | 44 | 0.0 | 0.0 | 0.00 | 0.00 | 0.00 | 61 | 1013.2 |
| 20260509154549 | 77 | 342 | 2.0 | 2.0 | 0.00 | 0.00 | 0.00 | 57 | 1013.2 |
| 20260509154047 | 77 | 101 | 1.0 | 2.0 | 0.00 | 0.00 | 0.00 | 61 | 1013.2 |
| 20260509153544 | 77 | 26 | 0.0 | 1.0 | 0.00 | 0.00 | 0.00 | 60 | 1013.0 |
| 20260509153040 | 77 | 34 | 0.0 | 1.0 | 0.00 | 0.00 | 0.00 | 63 | 1013.3 |
| 20260509152536 | 76 | 0 | 0.0 | 0.0 | 0.00 | 0.00 | 0.00 | 66 | 1013.2 |
| 20260509152034 | 76 | 47 | 1.0 | 2.0 | 0.00 | 0.00 | 0.00 | 67 | 1013.0 |
| 20260509151530 | 74 | 33 | 0.0 | 1.0 | 0.00 | 0.00 | 0.00 | 67 | 1013.3 |
| 20260509151028 | 74 | 349 | 0.0 | 1.0 | 0.00 | 0.00 | 0.00 | 68 | 1013.1 |
| 20260509150525 | 74 | 10 | 0.0 | 0.0 | 0.00 | 0.00 | 0.00 | 72 | 1013.2 |
| 20260509150024 | 74 | 29 | 1.0 | 1.0 | 0.00 | 0.00 | 0.00 | 75 | 1013.2 |
| 20260509145519 | 72 | 14 | 0.0 | 0.0 | 0.00 | 0.00 | 0.00 | 83 | 1013.1 |
| 20260509145014 | 70 | 76 | 1.0 | 1.0 | 0.00 | 0.00 | 0.00 | 84 | 1013.3 |
| 20260509144511 | 68 | 12 | 0.0 | 0.0 | 0.00 | 0.00 | 0.00 | 88 | 1013.3 |
| 20260509144008 | 67 | 23 | 1.0 | 1.0 | 0.00 | 0.00 | 0.00 | 92 | 1013.3 |
| 20260509143505 | 66 | 313 | 2.0 | 2.0 | 0.00 | 0.00 | 0.00 | 96 | 1013.3 |
| 20260509143003 | 65 | 322 | 3.0 | 6.0 | 0.00 | 0.00 | 0.00 | 99 | 1013.2 |
| 20260509142458 | 64 | 18 | 1.0 | 1.0 | 0.00 | 0.00 | 0.00 | 99 | 1013.3 |
| 20260509141954 | 63 | 350 | 1.0 | 2.0 | 0.00 | 0.00 | 0.00 | 99 | 1013.4 |
| 20260509141450 | 63 | 351 | 5.0 | 6.0 | 0.00 | 0.00 | 0.00 | 99 | 1013.2 |
| 20260509140948 | 63 | 33 | 1.0 | 2.0 | 0.00 | 0.00 | 0.00 | 99 | 1013.1 |
| 20260509140443 | 62 | 85 | 1.0 | 1.0 | 0.00 | 0.00 | 0.00 | 99 | 1013.0 |
| 20260509135942 | 60 | 32 | 1.0 | 1.0 | 0.00 | 0.00 | 0.00 | 99 | 1013.2 |
| 20260509135439 | 58 | 27 | 0.0 | 1.0 | 0.00 | 0.00 | 0.00 | 99 | 1012.9 |
| 20260509134936 | 56 | 28 | 0.0 | 0.0 | 0.00 | 0.00 | 0.00 | 99 | 1012.9 |
| 20260509134434 | 56 | 26 | 0.0 | 0.0 | 0.00 | 0.00 | 0.00 | 99 | 1012.9 |
| 20260509133931 | 55 | 29 | 0.0 | 0.0 | 0.00 | 0.00 | 0.00 | 99 | 1012.8 |
| 20260509133427 | 54 | 41 | 0.0 | 1.0 | 0.00 | 0.00 | 0.00 | 99 | 1012.8 |
| 20260509132926 | 53 | 47 | 1.0 | 1.0 | 0.00 | 0.00 | 0.00 | 99 | 1012.8 |
| 20260509132424 | 52 | 50 | 0.0 | 0.0 | 0.00 | 0.00 | 0.00 | 99 | 1012.9 |
| 20260509131920 | 52 | 71 | 1.0 | 1.0 | 0.00 | 0.00 | 0.00 | 99 | 1013.1 |
| 20260509131418 | 51 | 46 | 1.0 | 1.0 | 0.00 | 0.00 | 0.00 | 99 | 1012.8 |
| 20260509130914 | 50 | 12 | 0.0 | 0.0 | 0.00 | 0.00 | 0.00 | 99 | 1012.8 |
| 20260509130409 | 50 | 28 | 0.0 | 0.0 | 0.00 | 0.00 | 0.00 | 99 | 1012.8 |
| 20260509125907 | 50 | 53 | 0.0 | 1.0 | 0.00 | 0.00 | 0.00 | 99 | 1012.8 |
| 20260509125403 | 49 | 58 | 1.0 | 1.0 | 0.00 | 0.00 | 0.00 | 99 | 1012.5 |
| 20260509124859 | 49 | 72 | 1.0 | 1.0 | 0.00 | 0.00 | 0.00 | 99 | 1012.6 |
| 20260509124356 | 48 | 80 | 1.0 | 1.0 | 0.00 | 0.00 | 0.00 | 99 | 1012.8 |
| 20260509123854 | 48 | 103 | 0.0 | 1.0 | 0.00 | 0.00 | 0.00 | 99 | 1012.6 |
| 20260509123351 | 48 | 130 | 0.0 | 1.0 | 0.00 | 0.00 | 0.00 | 99 | 1012.5 |
| 20260509122847 | 47 | 96 | 1.0 | 1.0 | 0.00 | 0.00 | 0.00 | 99 | 1012.5 |
| 20260509122344 | 47 | 100 | 0.0 | 0.0 | 0.00 | 0.00 | 0.00 | 99 | 1012.4 |
| 20260509121841 | 47 | 109 | 1.0 | 1.0 | 0.00 | 0.00 | 0.00 | 99 | 1012.4 |
| 20260509121338 | 47 | 116 | 1.0 | 1.0 | 0.00 | 0.00 | 0.00 | 99 | 1012.3 |
| 20260509120836 | 47 | 124 | 1.0 | 1.0 | 0.00 | 0.00 | 0.00 | 99 | 1012.5 |
| 20260509120333 | 47 | 148 | 1.0 | 1.0 | 0.00 | 0.00 | 0.00 | 99 | 1012.5 |
| 20260509115831 | 46 | 159 | 2.0 | 2.0 | 0.00 | 0.00 | 0.00 | 99 | 1012.4 |
| 20260509115328 | 46 | 118 | 0.0 | 1.0 | 0.00 | 0.00 | 0.00 | 99 | 1012.5 |
| 20260509114826 | 46 | 121 | 1.0 | 1.0 | 0.00 | 0.00 | 0.00 | 99 | 1012.1 |
| 20260509114325 | 46 | 156 | 1.0 | 2.0 | 0.00 | 0.00 | 0.00 | 99 | 1012.3 |
| 20260509113824 | 46 | 79 | 1.0 | 1.0 | 0.00 | 0.00 | 0.00 | 99 | 1012.0 |
| 20260509113320 | 46 | 137 | 1.0 | 1.0 | 0.00 | 0.00 | 0.00 | 99 | 1012.0 |
| 20260509112817 | 46 | 157 | 1.0 | 1.0 | 0.00 | 0.00 | 0.00 | 99 | 1011.9 |
| 20260509112314 | 46 | 127 | 1.0 | 1.0 | 0.00 | 0.00 | 0.00 | 99 | 1012.1 |
| 20260509111811 | 46 | 111 | 1.0 | 1.0 | 0.00 | 0.00 | 0.00 | 99 | 1012.1 |
| 20260509111308 | 46 | 112 | 1.0 | 1.0 | 0.00 | 0.00 | 0.00 | 99 | 1012.0 |
| 20260509110806 | 46 | 132 | 1.0 | 1.0 | 0.00 | 0.00 | 0.00 | 99 | 1012.0 |
| 20260509110301 | 46 | 139 | 2.0 | 2.0 | 0.00 | 0.00 | 0.00 | 99 | 1011.7 |
| 20260509105800 | 46 | 66 | 1.0 | 1.0 | 0.00 | 0.00 | 0.00 | 99 | 1011.8 |
| 20260509105257 | 47 | 29 | 0.0 | 0.0 | 0.00 | 0.00 | 0.00 | 99 | 1011.9 |